LEMUR-2-MERIMA (48929 NORAD) Tracking and Keplerian Element Data

This shows tracking and keplerian element data for the satellite.

Feedback or suggestion? Click here.




ElementValue
Catalog48929
NameLEMUR-2-MERIMA
Epoch Orbit1676
Epoch Day287.61603003
Epoch Year2021
RAAN54.962
Inclination97.5202
Eccentricity0.0016636
Argument of Perigee225.3045
Mean Anonmoly134.6832
Mean Motion15.14094558
Decay Rate4.01E-05
L11 48929U 21059BC 21287.61603003 .00004010 00000-0 22325-3 0 9990
L22 48929 97.5202 54.9620 0016636 225.3045 134.6832 15.14094558 16767

Live tracking and technical data element details for LEMUR-2-MERIMA (NORAD 48929). LEMUR-2-MERIMA can be tracked NOW for your location showing map with azimuth and elevation plus other details from your city location.

Track the satellite on the map from your city or location and see movement details for azimuth, elevation, latitude, longitude, range, height, and movement on the map or in text.







IsCatalogInMostPopularTable: catalog: 48929, numindb: 20
Update: records affected: 1



GetName: 48929 LEMUR-2-MERIMA

Hit Count: updated at: Tue, 19 Oct 2021 09:13:38 GMT